Regional Weather Roundup
Issued by NWS Bismarck, ND

Home | Current Version | Previous Version | Text Only | Print | Product List | Glossary On
Versions: 1 2 3 4 5 6 7 8 9 10 11 12 13 14 15 16 17 18 19 20 21 22 23 24 25 26 27 28 29 30 31 32 33 34 35 36 37 38 39 40 41 42 43 44 45 46 47 48 49 50
000
ASUS43 KBIS 012001
RWRBIS

NWR BROADCAST TEXT
NATIONAL WEATHER SERVICE BISMARCK ND
200 PM CST SUN MAR 01 2015

NOTE: "FAIR" INDICATES FEW OR NO CLOUDS BELOW 12,000 FEET WITH NO
SIGNIFICANT WEATHER AND/OR OBSTRUCTIONS TO VISIBILITY.


CITY           SKY/WX    TMP DP  RH WIND       PRES   REMARKS
WILLISTON      MOSUNNY   24  12  60 NW15      30.30  WCI  11
MINOT          SUNNY     21  10  62 W18       30.27  WCI   6
MINOT AFB      NOT AVBL
BISMARCK       FLURRIES  24  14  65 NW20      30.29S WCI  10
DICKINSON      CLOUDY    24   9  52 NW16      30.23  WCI  11
GARRISON         N/A     21  13  71 NW17      30.27S WCI   7
HETTINGER ARPT CLOUDY    24  10  55 W16       30.27  WCI  11
JAMESTOWN      MOSUNNY   21  12  68 NW17      30.23  WCI   7
CARRINGTON     FAIR      18  14  86 MISG      30.24R
CROSBY         FAIR      19  14  79 NW12      30.28F WCI   7
HAZEN          FAIR      25  10  54 NW20      30.30S WCI  11
OAKES            N/A     23  14  68 NW23G30   30.24S WCI   7
$$

CITY           SKY/WX    TMP DP  RH WIND       PRES   REMARKS
GRAND FORKS    PTSUNNY   20  10  65 NW14      30.22R WCI   7
GRAND FORKS AF PTSUNNY   20   9  62 NW16      30.23R WCI   5
DEVILS LAKE    SUNNY     16   9  73 NW16      30.23R WCI   0
FARGO          CLOUDY    22  12  65 NW15      30.22S WCI   9
GWINNER        PTCLDY    27  16  63 NW20G26   30.24S WCI  13
$$

CITY           SKY/WX    TMP DP  RH WIND       PRES   REMARKS
ABERDEEN       CLOUDY    28  17  63 NW15      30.29R WCI  16
MOBRIDGE       MIX PCPN  30  16  56 NW17      30.25  WCI  18
BUFFALO          N/A     24  11  57 W23G31    30.21  WCI   9
RAPID CITY     SUNNY     28  12  51 N24       30.26  WCI  14
GLASGOW        CLOUDY    26  10  50 NW5       30.29
SIDNEY         PTSUNNY   27  10  50 W10G20    30.34S WCI  17
WOLF POINT     CLOUDY    29  10  45 W13       30.31F WCI  19
GLENDIVE       MOSUNNY   23  12  63 NW13      30.30F WCI  11
MILES CITY     CLOUDY    26  12  55 N15       30.31F WCI  14
BAKER          FLURRIES  22  11  62 NW16      30.28R WCI   8
$$

CITY           SKY/WX    TMP DP  RH WIND       PRES   REMARKS
BILLINGS       SUNNY     32   1  26 SW6       30.24
GREAT FALLS    SUNNY     34  12  40 S16       30.14
$$



USA.gov is the U.S. government's official web portal to all federal, state and local government web resources and services.